Location: Heilwood
(40.6210°N, 78.9150°W)
Time: 18:34:26
(UTC-04:00)

BREEZE-M DEB (TANK) - Visible Passes

Search period start: 23 May 2017 00:00
Search period end: 02 June 2017 00:00
Orbit: 321 x 15832 km, 49.5° (Epoch: 22 May)

Date Brightness Start Highest point End Pass type
(mag) Time Alt. Az. Time Alt. Az. Time Alt. Az.
23 May 6.4 04:02:53 18° SW 05:01:54 89° SE 05:12:51 10° ENE visible
23 May 8.3 23:15:48 17° SE 23:43:37 21° ESE 00:07:21 10° E visible
24 May 6.4 04:04:02 17° SW 05:03:31 89° NW 05:14:17 10° ENE visible
24 May 8.2 23:16:45 18° SE 23:45:18 22° ESE 00:09:47 10° E visible
25 May 6.4 04:04:56 17° SW 05:05:08 87° NNW 05:15:44 10° ENE visible
25 May 8.2 23:17:26 19° SE 23:47:00 24° ESE 00:12:05 10° ENE visible
26 May 6.4 04:05:33 16° SW 05:06:45 84° NNW 05:17:10 10° ENE visible
26 May 8.1 23:17:49 20° SE 23:48:42 26° ESE 00:14:15 10° ENE visible
27 May 6.3 04:05:50 15° SW 05:08:23 82° NNW 05:18:37 10° ENE visible
27 May 8.1 23:17:48 21° SE 23:50:26 28° ESE 00:16:20 10° ENE visible
28 May 6.3 04:05:44 14° SW 05:10:00 80° NNW 05:20:04 10° ENE visible
28 May 8.1 23:17:18 22° SE 23:52:11 29° ESE 00:18:21 10° ENE visible
29 May 6.3 04:05:06 12° SW 05:11:38 78° NNW 05:21:31 10° ENE visible
29 May 8.0 22:32:00 10° SSE 23:53:55 31° ESE 00:20:17 10° ENE visible
30 May 6.3 04:03:40 11° SW 05:13:15 76° NNW 05:22:58 10° ENE visible
30 May 8.0 22:30:04 10° SSE 23:55:42 33° ESE 00:22:11 10° ENE visible
31 May 6.2 04:05:11 10° WSW 05:14:53 74° NNW 05:24:25 10° ENE visible
31 May 8.0 22:28:20 10° SSE 23:57:29 35° ESE 00:24:01 10° ENE visible
01 Jun 6.2 04:08:45 10° WSW 05:16:31 72° NNW 05:25:53 10° ENE visible
